MKU674 PHNL-PHOG

Flight info

Callsign MKU674
Flight time 0h 37m
Altitude 7000
Route PALAY3 LNY CAMPS4
Aircraft C208/L-SDFGR/C

Departure

Time 2026-04-22 20:17
Airport Daniel K. Inouye International Airport (PHNL)

Arrival

Time 2026-04-22 20:55
Airport Kahului International Airport (PHOG)
Time Latitude Longitude Altitude Speed Heading
2026-04-22 19:50 21.33114 -157.91079 23 ft 0 kts 233°
2026-04-22 20:10 21.33099 -157.91082 24 ft 8 kts 149°
2026-04-22 20:10 21.33022 -157.91042 25 ft 16 kts 206°
2026-04-22 20:11 21.32930 -157.91162 24 ft 23 kts 233°
2026-04-22 20:11 21.32837 -157.91293 23 ft 23 kts 234°
2026-04-22 20:11 21.32773 -157.91451 23 ft 26 kts 271°
2026-04-22 20:11 21.32773 -157.91645 23 ft 27 kts 269°
2026-04-22 20:12 21.32774 -157.91825 23 ft 23 kts 268°
2026-04-22 20:12 21.32775 -157.92017 23 ft 29 kts 269°
2026-04-22 20:12 21.32775 -157.92167 23 ft 31 kts 270°
2026-04-22 20:12 21.32775 -157.92444 23 ft 23 kts 269°
2026-04-22 20:13 21.32775 -157.92603 23 ft 22 kts 269°
2026-04-22 20:13 21.32752 -157.92780 23 ft 24 kts 250°
2026-04-22 20:13 21.32719 -157.92893 23 ft 13 kts 202°
2026-04-22 20:13 21.32630 -157.92898 23 ft 9 kts 180°
2026-04-22 20:14 21.32626 -157.92898 23 ft 0 kts 180°
2026-04-22 20:15 21.32583 -157.92898 25 ft 12 kts 180°
2026-04-22 20:15 21.32526 -157.92876 23 ft 8 kts 86°
2026-04-22 20:15 21.32526 -157.92870 23 ft 0 kts 90°
2026-04-22 20:16 21.32525 -157.92830 25 ft 13 kts 90°
2026-04-22 20:16 21.32526 -157.92600 23 ft 55 kts 89°
2026-04-22 20:17 21.32522 -157.92035 62 ft 90 kts 91°
2026-04-22 20:17 21.32551 -157.91336 268 ft 99 kts 97°
2026-04-22 20:17 21.32336 -157.90647 495 ft 100 kts 140°
2026-04-22 20:17 21.31825 -157.90116 763 ft 105 kts 136°
2026-04-22 20:18 21.31255 -157.89587 1020 ft 111 kts 137°
2026-04-22 20:18 21.30641 -157.89066 1267 ft 113 kts 138°
2026-04-22 20:18 21.29998 -157.88556 1520 ft 116 kts 137°
2026-04-22 20:18 21.29338 -157.88044 1771 ft 120 kts 139°
2026-04-22 20:19 21.28638 -157.87509 2028 ft 125 kts 139°
2026-04-22 20:19 21.27917 -157.86959 2295 ft 129 kts 138°
2026-04-22 20:19 21.27172 -157.86408 2590 ft 129 kts 140°
2026-04-22 20:19 21.26449 -157.85856 2886 ft 126 kts 137°
2026-04-22 20:20 21.25743 -157.85331 3191 ft 123 kts 139°
2026-04-22 20:20 21.25142 -157.84728 3503 ft 114 kts 111°
2026-04-22 20:20 21.24829 -157.83970 3810 ft 112 kts 113°
2026-04-22 20:20 21.24469 -157.83243 4116 ft 108 kts 113°
2026-04-22 20:21 21.24113 -157.82543 4424 ft 105 kts 116°
2026-04-22 20:21 21.23762 -157.81866 4737 ft 102 kts 115°
2026-04-22 20:21 21.23420 -157.81212 5034 ft 99 kts 116°
2026-04-22 20:21 21.23090 -157.80582 5327 ft 94 kts 116°
2026-04-22 20:22 21.22778 -157.79991 5612 ft 87 kts 116°
2026-04-22 20:22 21.22499 -157.79446 5816 ft 86 kts 114°
2026-04-22 20:22 21.22164 -157.78828 5884 ft 108 kts 117°
2026-04-22 20:22 21.21748 -157.78069 6017 ft 125 kts 116°
2026-04-22 20:23 21.21303 -157.77226 6190 ft 134 kts 117°
2026-04-22 20:23 21.20832 -157.76336 6344 ft 139 kts 116°
2026-04-22 20:23 21.20347 -157.75417 6488 ft 144 kts 116°
2026-04-22 20:23 21.19852 -157.74485 6645 ft 145 kts 117°
2026-04-22 20:24 21.19356 -157.73546 6811 ft 143 kts 117°
2026-04-22 20:24 21.18864 -157.72616 6974 ft 143 kts 117°
2026-04-22 20:24 21.18361 -157.71672 7009 ft 153 kts 118°
2026-04-22 20:24 21.17817 -157.70655 7018 ft 161 kts 117°
2026-04-22 20:25 21.17251 -157.69593 7017 ft 167 kts 118°
2026-04-22 20:25 21.16665 -157.68501 7016 ft 171 kts 117°
2026-04-22 20:25 21.16073 -157.67390 7017 ft 173 kts 118°
2026-04-22 20:25 21.15476 -157.66270 7014 ft 174 kts 118°
2026-04-22 20:26 21.14876 -157.65143 7012 ft 174 kts 118°
2026-04-22 20:26 21.14274 -157.64007 7013 ft 175 kts 117°
2026-04-22 20:26 21.13678 -157.62885 7013 ft 176 kts 118°
2026-04-22 20:26 21.13068 -157.61747 7012 ft 176 kts 118°
2026-04-22 20:27 21.12462 -157.60608 7007 ft 176 kts 117°
2026-04-22 20:27 21.11855 -157.59465 7007 ft 176 kts 117°
2026-04-22 20:27 21.11246 -157.58322 7007 ft 176 kts 117°
2026-04-22 20:27 21.10647 -157.57194 7009 ft 175 kts 118°
2026-04-22 20:28 21.09986 -157.56086 7012 ft 176 kts 120°
2026-04-22 20:28 21.09364 -157.54947 7010 ft 176 kts 118°
2026-04-22 20:28 21.08746 -157.53826 7010 ft 177 kts 119°
2026-04-22 20:28 21.08109 -157.52695 7009 ft 176 kts 120°
2026-04-22 20:29 21.07475 -157.51572 7010 ft 175 kts 120°
2026-04-22 20:29 21.06844 -157.50457 7010 ft 175 kts 120°
2026-04-22 20:29 21.06225 -157.49358 7010 ft 175 kts 120°
2026-04-22 20:29 21.05594 -157.48242 7010 ft 175 kts 120°
2026-04-22 20:30 21.04962 -157.47125 7008 ft 175 kts 120°
2026-04-22 20:30 21.04331 -157.46006 7009 ft 175 kts 120°
2026-04-22 20:30 21.03706 -157.44900 7010 ft 175 kts 120°
2026-04-22 20:30 21.03073 -157.43785 7010 ft 175 kts 120°
2026-04-22 20:31 21.02443 -157.42672 7008 ft 175 kts 120°
2026-04-22 20:31 21.01809 -157.41547 7008 ft 175 kts 119°
2026-04-22 20:31 21.01178 -157.40430 7010 ft 176 kts 120°
2026-04-22 20:31 21.00539 -157.39308 7012 ft 176 kts 120°
2026-04-22 20:32 20.99910 -157.38200 7007 ft 176 kts 120°
2026-04-22 20:32 20.99278 -157.37080 7007 ft 175 kts 120°
2026-04-22 20:32 20.98648 -157.35965 7007 ft 175 kts 120°
2026-04-22 20:32 20.98016 -157.34848 7008 ft 175 kts 120°
2026-04-22 20:33 20.97382 -157.33734 7011 ft 175 kts 120°
2026-04-22 20:33 20.96749 -157.32618 7012 ft 175 kts 120°
2026-04-22 20:33 20.96127 -157.31512 7009 ft 175 kts 120°
2026-04-22 20:33 20.95495 -157.30400 7007 ft 175 kts 120°
2026-04-22 20:34 20.94861 -157.29280 7007 ft 176 kts 120°
2026-04-22 20:34 20.94220 -157.28158 7010 ft 176 kts 120°
2026-04-22 20:34 20.93584 -157.27033 7013 ft 176 kts 120°
2026-04-22 20:34 20.92958 -157.25927 7017 ft 176 kts 120°
2026-04-22 20:35 20.92318 -157.24804 7020 ft 177 kts 120°
2026-04-22 20:35 20.91680 -157.23678 7024 ft 177 kts 120°
2026-04-22 20:35 20.91250 -157.22918 7028 ft 177 kts 120°
2026-04-22 20:35 20.90613 -157.21805 7031 ft 177 kts 120°
2026-04-22 20:36 20.89766 -157.20311 7036 ft 176 kts 121°
2026-04-22 20:36 20.89336 -157.19554 7038 ft 176 kts 121°
2026-04-22 20:36 20.88711 -157.18452 7040 ft 175 kts 121°
2026-04-22 20:36 20.88077 -157.17336 7042 ft 175 kts 121°
2026-04-22 20:37 20.87444 -157.16223 7044 ft 175 kts 121°
2026-04-22 20:37 20.86807 -157.15102 7050 ft 175 kts 121°
2026-04-22 20:37 20.86174 -157.13991 7054 ft 175 kts 121°
2026-04-22 20:37 20.85542 -157.12880 7058 ft 175 kts 121°
2026-04-22 20:38 20.84917 -157.11783 7063 ft 175 kts 121°
2026-04-22 20:38 20.84283 -157.10667 7064 ft 175 kts 121°
2026-04-22 20:38 20.83650 -157.09553 7067 ft 175 kts 121°
2026-04-22 20:38 20.83015 -157.08440 7025 ft 177 kts 121°
2026-04-22 20:39 20.82361 -157.07300 6907 ft 182 kts 121°
2026-04-22 20:39 20.81700 -157.06146 6802 ft 184 kts 121°
2026-04-22 20:39 20.81028 -157.04967 6691 ft 185 kts 121°
2026-04-22 20:39 20.80358 -157.03785 6574 ft 186 kts 120°
2026-04-22 20:40 20.79684 -157.02604 6452 ft 186 kts 121°
2026-04-22 20:40 20.79010 -157.01424 6328 ft 185 kts 121°
2026-04-22 20:40 20.78345 -157.00258 6206 ft 185 kts 120°
2026-04-22 20:40 20.77672 -156.99075 6081 ft 185 kts 121°
2026-04-22 20:41 20.77059 -156.97886 5957 ft 185 kts 110°
2026-04-22 20:41 20.76723 -156.96559 5836 ft 184 kts 102°
2026-04-22 20:41 20.76431 -156.95221 5714 ft 184 kts 102°
2026-04-22 20:41 20.76143 -156.93905 5589 ft 183 kts 102°
2026-04-22 20:42 20.75868 -156.92581 5472 ft 182 kts 99°
2026-04-22 20:42 20.75688 -156.91237 5350 ft 183 kts 97°
2026-04-22 20:42 20.75528 -156.89885 5232 ft 183 kts 96°
2026-04-22 20:42 20.75374 -156.88551 5113 ft 183 kts 96°
2026-04-22 20:43 20.75225 -156.87202 4992 ft 183 kts 96°
2026-04-22 20:43 20.75074 -156.85850 4866 ft 182 kts 96°
2026-04-22 20:43 20.74920 -156.84509 4736 ft 181 kts 96°
2026-04-22 20:43 20.74769 -156.83178 4603 ft 180 kts 96°
2026-04-22 20:44 20.74617 -156.81849 4480 ft 179 kts 96°
2026-04-22 20:44 20.74471 -156.80535 4355 ft 179 kts 96°
2026-04-22 20:44 20.74321 -156.79205 4228 ft 179 kts 96°
2026-04-22 20:44 20.74173 -156.77888 4103 ft 178 kts 96°
2026-04-22 20:45 20.74021 -156.76574 3976 ft 178 kts 96°
2026-04-22 20:45 20.73874 -156.75279 3855 ft 178 kts 96°
2026-04-22 20:45 20.73724 -156.73971 3731 ft 177 kts 96°
2026-04-22 20:45 20.73575 -156.72667 3603 ft 177 kts 96°
2026-04-22 20:46 20.73274 -156.70062 3357 ft 175 kts 96°
2026-04-22 20:46 20.73123 -156.68784 3230 ft 175 kts 96°
2026-04-22 20:46 20.72977 -156.67492 3103 ft 174 kts 96°
2026-04-22 20:47 20.72834 -156.66210 3028 ft 172 kts 96°
2026-04-22 20:47 20.72698 -156.64955 3023 ft 168 kts 96°
2026-04-22 20:47 20.72563 -156.63724 3017 ft 166 kts 96°
2026-04-22 20:47 20.72430 -156.62502 3011 ft 164 kts 96°
2026-04-22 20:48 20.72297 -156.61304 3010 ft 163 kts 96°
2026-04-22 20:48 20.72162 -156.60097 3006 ft 163 kts 96°
2026-04-22 20:48 20.72067 -156.58902 2996 ft 163 kts 85°
2026-04-22 20:48 20.72529 -156.57814 2996 ft 162 kts 54°
2026-04-22 20:49 20.73206 -156.56851 2996 ft 161 kts 54°
2026-04-22 20:49 20.73833 -156.55860 3008 ft 160 kts 64°
2026-04-22 20:49 20.74266 -156.54782 3008 ft 159 kts 67°
2026-04-22 20:49 20.74724 -156.53705 2998 ft 157 kts 65°
2026-04-22 20:50 20.75196 -156.52658 3006 ft 155 kts 64°
2026-04-22 20:50 20.75653 -156.51625 2994 ft 156 kts 65°
2026-04-22 20:50 20.76127 -156.50570 2890 ft 161 kts 63°
2026-04-22 20:50 20.76650 -156.49482 2789 ft 165 kts 62°
2026-04-22 20:51 20.77285 -156.48458 2728 ft 164 kts 49°
2026-04-22 20:51 20.78136 -156.47674 2682 ft 163 kts 32°
2026-04-22 20:51 20.79159 -156.47160 2602 ft 161 kts 18°
2026-04-22 20:51 20.80257 -156.46868 2389 ft 165 kts 13°
2026-04-22 20:52 20.81364 -156.46613 2176 ft 158 kts 12°
2026-04-22 20:52 20.82399 -156.46389 2089 ft 146 kts 11°
2026-04-22 20:52 20.83361 -156.46198 1910 ft 141 kts 10°
2026-04-22 20:52 20.84327 -156.46036 1713 ft 136 kts
2026-04-22 20:53 20.85226 -156.45869 1425 ft 125 kts 12°
2026-04-22 20:53 20.86049 -156.45592 1219 ft 123 kts 20°
2026-04-22 20:53 20.86776 -156.45201 1002 ft 113 kts 31°
2026-04-22 20:53 20.87385 -156.44768 758 ft 102 kts 32°
2026-04-22 20:54 20.87939 -156.44358 475 ft 85 kts 33°
2026-04-22 20:54 20.88372 -156.44036 279 ft 70 kts 32°
2026-04-22 20:54 20.88765 -156.43746 121 ft 67 kts 34°
2026-04-22 20:54 20.89126 -156.43477 45 ft 57 kts 32°
2026-04-22 20:55 20.89403 -156.43268 46 ft 43 kts 35°
2026-04-22 20:55 20.89617 -156.43111 45 ft 31 kts 34°
2026-04-22 20:55 20.89743 -156.43089 43 ft 20 kts 303°
2026-04-22 20:55 20.89784 -156.43248 44 ft 27 kts 271°
2026-04-22 20:56 20.89785 -156.43431 44 ft 21 kts 270°
2026-04-22 20:56 20.89736 -156.43582 44 ft 24 kts 245°
2026-04-22 20:56 20.89669 -156.43638 44 ft 12 kts 154°
2026-04-22 20:56 20.89636 -156.43608 44 ft 2 kts 64°
2026-04-22 20:57 20.89642 -156.43596 44 ft 0 kts 65°